Location: Piotrkow Trybunalski
(51.4000°N, 19.6830°E)
Time: 00:33:31
(UTC+02:00)

STRAND 1 - Pass Details

Date: 04 April 2023
Orbit: 767 x 779 km, 98.4° (Epoch: 06 June)

Event Time Altitude Azimuth Distance (km) Brightness Sun altitude
Rises 20:27:41 0° 10° (N) 3,253 ? -11.0°
Reaches altitude 10° 20:30:05 10° 4° (N) 2,321 ? -11.4°
Maximum altitude 20:34:54 43° 294° (WNW) 1,070 ? -12.1°
Drops below altitude 10° 20:39:41 10° 224° (SW) 2,306 ? -12.7°
Sets 20:42:04 0° 218° (SW) 3,229 ? -13.1°
